Time,TemperatureF,DewpointF,PressureIn,WindDirection,WindDirectionDegrees,WindSpeedMPH,WindSpeedGustMPH,Humidity,HourlyPrecipIn,Conditions,Clouds,dailyrainin,SoftwareType,DateUTC
2013-09-28 00:02:00,48.9,36.5,28.91,SSE,163,7.6,7.6,62,0.00,,---,0.00,VWS V13.00,2013-09-28 08:02:00,
2013-09-28 00:07:00,49.1,36.2,28.91,SSE,152,5.4,7.6,61,0.00,,---,0.00,VWS V13.00,2013-09-28 08:07:00,
2013-09-28 00:12:00,49.1,36.2,28.94,NNE,24,4.5,7.6,61,0.00,,---,0.00,VWS V13.00,2013-09-28 08:12:00,
2013-09-28 00:17:00,49.1,35.8,28.94,SSE,155,7.6,7.6,60,0.00,,---,0.00,VWS V13.00,2013-09-28 08:17:00,
2013-09-28 00:22:00,49.1,35.8,28.94,East,86,0.0,0.0,60,0.00,,---,0.00,VWS V13.00,2013-09-28 08:22:00,
2013-09-28 00:27:00,49.3,36.0,28.94,WNW,294,4.0,4.0,60,0.00,,---,0.00,VWS V13.00,2013-09-28 08:27:00,
2013-09-28 00:32:00,49.1,35.8,28.94,SSE,150,0.0,4.0,60,0.00,,---,0.00,VWS V13.00,2013-09-28 08:32:00,
2013-09-28 00:37:00,49.1,35.8,28.94,East,84,0.0,4.0,60,0.00,,---,0.00,VWS V13.00,2013-09-28 08:37:00,
2013-09-28 00:42:00,49.1,35.8,28.94,NE,55,0.0,8.3,60,0.00,,---,0.00,VWS V13.00,2013-09-28 08:42:00,
2013-09-28 00:47:00,49.1,35.8,28.94,East,80,5.4,8.3,60,0.00,,---,0.00,VWS V13.00,2013-09-28 08:47:00,
2013-09-28 00:52:00,49.1,35.8,28.94,SE,127,8.1,8.3,60,0.00,,---,0.00,VWS V13.00,2013-09-28 08:52:00,
2013-09-28 00:57:00,49.1,35.4,28.94,North,10,6.3,8.3,59,0.00,,---,0.00,VWS V13.00,2013-09-28 08:57:00,
2013-09-28 01:02:00,49.3,35.6,28.94,SE,139,3.1,6.3,59,0.00,,---,0.00,VWS V13.00,2013-09-28 09:02:00,
2013-09-28 01:07:00,49.3,35.6,28.94,NNW,336,0.0,6.3,59,0.00,,---,0.00,VWS V13.00,2013-09-28 09:07:00,
2013-09-28 01:12:00,49.3,35.6,28.94,SE,145,0.0,6.3,59,0.00,,---,0.00,VWS V13.00,2013-09-28 09:12:00,
2013-09-28 01:17:00,49.3,35.6,28.94,North,9,0.0,6.3,59,0.00,,---,0.00,VWS V13.00,2013-09-28 09:17:00,
2013-09-28 01:22:00,49.1,35.4,28.94,WSW,257,0.0,5.4,59,0.00,,---,0.00,VWS V13.00,2013-09-28 09:22:00,
2013-09-28 01:27:00,49.1,35.4,28.94,SE,128,3.6,5.4,59,0.00,,---,0.00,VWS V13.00,2013-09-28 09:27:00,
2013-09-28 01:32:00,49.1,35.4,28.94,NNE,15,0.0,5.4,59,0.00,,---,0.00,VWS V13.00,2013-09-28 09:32:00,
2013-09-28 01:37:00,49.1,35.4,28.94,NNW,330,0.0,6.3,59,0.00,,---,0.00,VWS V13.00,2013-09-28 09:37:00,
2013-09-28 01:42:00,49.1,35.4,28.94,ESE,119,0.0,3.6,59,0.00,,---,0.00,VWS V13.00,2013-09-28 09:42:00,
2013-09-28 01:47:00,49.1,35.4,28.94,NNE,13,4.9,5.8,59,0.00,,---,0.00,VWS V13.00,2013-09-28 09:47:00,
2013-09-28 01:52:00,49.1,35.4,28.94,ESE,110,0.0,6.3,59,0.00,,---,0.00,VWS V13.00,2013-09-28 09:52:00,
2013-09-28 01:57:00,49.1,35.4,28.94,ESE,114,0.0,6.3,59,0.00,,---,0.00,VWS V13.00,2013-09-28 09:57:00,
2013-09-28 02:02:00,49.3,35.1,28.94,ESE,120,0.0,6.3,58,0.00,,---,0.00,VWS V13.00,2013-09-28 10:02:00,
2013-09-28 02:07:00,49.3,35.1,28.94,NNE,31,0.0,6.3,58,0.00,,---,0.00,VWS V13.00,2013-09-28 10:07:00,
2013-09-28 02:12:00,49.3,34.7,28.94,SE,136,0.0,6.3,57,0.00,,---,0.00,VWS V13.00,2013-09-28 10:12:00,
2013-09-28 02:17:00,49.5,34.9,28.97,NE,38,0.0,6.3,57,0.00,,---,0.00,VWS V13.00,2013-09-28 10:17:00,
2013-09-28 02:22:00,49.5,34.9,28.97,SSE,156,0.0,4.0,57,0.00,,---,0.00,VWS V13.00,2013-09-28 10:22:00,
2013-09-28 02:27:00,49.5,34.9,28.97,ENE,60,0.0,4.0,57,0.00,,---,0.00,VWS V13.00,2013-09-28 10:27:00,
2013-09-28 02:32:00,49.5,34.4,28.97,East,101,7.2,7.2,56,0.00,,---,0.00,VWS V13.00,2013-09-28 10:32:00,
2013-09-28 02:37:00,49.5,34.4,28.97,SSW,206,5.8,7.2,56,0.00,,---,0.00,VWS V13.00,2013-09-28 10:37:00,
2013-09-28 02:42:00,49.5,34.4,28.97,NE,39,0.0,7.6,56,0.00,,---,0.00,VWS V13.00,2013-09-28 10:42:00,
2013-09-28 02:47:00,49.6,34.2,28.97,SE,130,3.6,7.6,55,0.00,,---,0.00,VWS V13.00,2013-09-28 10:47:00,
2013-09-28 02:52:00,49.6,34.2,28.97,NE,39,0.0,8.1,55,0.00,,---,0.00,VWS V13.00,2013-09-28 10:52:00,
2013-09-28 02:57:00,49.5,34.0,28.97,ENE,69,2.2,8.1,55,0.00,,---,0.00,VWS V13.00,2013-09-28 10:57:00,
2013-09-28 03:02:00,49.5,34.0,28.97,ENE,70,0.0,0.0,55,0.00,,---,0.00,VWS V13.00,2013-09-28 11:02:00,
2013-09-28 03:07:00,49.5,34.0,28.97,North,353,0.0,0.0,55,0.00,,---,0.00,VWS V13.00,2013-09-28 11:07:00,
2013-09-28 03:12:00,49.5,34.0,28.97,NE,37,0.0,0.0,55,0.00,,---,0.00,VWS V13.00,2013-09-28 11:12:00,
2013-09-28 03:17:00,49.3,33.8,28.97,ESE,107,3.6,8.1,55,0.00,,---,0.00,VWS V13.00,2013-09-28 11:17:00,
2013-09-28 03:22:00,49.1,34.1,28.97,NNE,15,11.0,11.0,56,0.00,,---,0.00,VWS V13.00,2013-09-28 11:22:00,
2013-09-28 03:27:00,49.1,34.1,28.97,West,277,0.0,11.0,56,0.00,,---,0.00,VWS V13.00,2013-09-28 11:27:00,
2013-09-28 03:32:00,49.1,34.1,28.97,East,84,0.0,11.0,56,0.00,,---,0.00,VWS V13.00,2013-09-28 11:32:00,
2013-09-28 03:37:00,48.9,33.9,28.97,East,97,0.0,11.0,56,0.00,,---,0.00,VWS V13.00,2013-09-28 11:37:00,
2013-09-28 03:42:00,48.9,33.9,28.97,NNW,341,0.0,0.0,56,0.00,,---,0.00,VWS V13.00,2013-09-28 11:42:00,
2013-09-28 03:47:00,48.7,33.8,28.97,NNE,23,7.6,7.6,56,0.00,,---,0.00,VWS V13.00,2013-09-28 11:47:00,
2013-09-28 03:52:00,48.7,33.8,28.97,East,95,0.0,7.6,56,0.00,,---,0.00,VWS V13.00,2013-09-28 11:52:00,
2013-09-28 03:57:00,48.7,33.8,28.97,ENE,78,5.8,7.6,56,0.00,,---,0.00,VWS V13.00,2013-09-28 11:57:00,
2013-09-28 04:02:00,48.7,33.8,28.97,SSW,198,0.0,0.0,56,0.00,,---,0.00,VWS V13.00,2013-09-28 12:02:00,
2013-09-28 04:07:00,48.7,33.8,28.97,NNE,30,0.0,7.2,56,0.00,,---,0.00,VWS V13.00,2013-09-28 12:07:00,
2013-09-28 04:12:00,48.7,33.8,28.97,ENE,70,0.0,7.2,56,0.00,,---,0.00,VWS V13.00,2013-09-28 12:12:00,
2013-09-28 04:17:00,48.7,33.8,28.97,NE,42,0.0,7.2,56,0.00,,---,0.00,VWS V13.00,2013-09-28 12:17:00,
2013-09-28 04:22:00,48.7,33.8,28.97,NNE,22,3.1,3.6,56,0.00,,---,0.00,VWS V13.00,2013-09-28 12:22:00,
2013-09-28 04:27:00,48.7,33.8,28.97,East,98,8.1,8.7,56,0.00,,---,0.00,VWS V13.00,2013-09-28 12:27:00,
2013-09-28 04:32:00,48.7,33.8,28.97,NE,48,0.0,8.7,56,0.00,,---,0.00,VWS V13.00,2013-09-28 12:32:00,
2013-09-28 04:37:00,48.6,33.6,28.97,SSE,155,0.0,8.7,56,0.00,,---,0.00,VWS V13.00,2013-09-28 12:37:00,
2013-09-28 04:42:00,48.6,33.6,28.97,ESE,123,3.1,3.1,56,0.00,,---,0.00,VWS V13.00,2013-09-28 12:42:00,
2013-09-28 04:47:00,48.6,33.6,28.97,NNW,328,0.0,8.1,56,0.00,,---,0.00,VWS V13.00,2013-09-28 12:47:00,
2013-09-28 04:52:00,48.6,33.6,28.97,ESE,118,0.0,8.1,56,0.00,,---,0.00,VWS V13.00,2013-09-28 12:52:00,
2013-09-28 04:57:00,48.6,33.1,28.97,ESE,106,0.0,8.1,55,0.00,,---,0.00,VWS V13.00,2013-09-28 12:57:00,
2013-09-28 05:02:00,48.6,33.1,28.97,SE,145,0.0,0.0,55,0.00,,---,0.00,VWS V13.00,2013-09-28 13:02:00,
2013-09-28 05:07:00,48.6,33.1,28.97,ESE,120,0.0,0.0,55,0.00,,---,0.00,VWS V13.00,2013-09-28 13:07:00,
2013-09-28 05:12:00,48.4,33.0,28.97,NNW,332,0.0,4.5,55,0.00,,---,0.00,VWS V13.00,2013-09-28 13:12:00,
2013-09-28 05:17:00,48.4,33.0,28.97,NNW,333,0.0,4.5,55,0.00,,---,0.00,VWS V13.00,2013-09-28 13:17:00,
2013-09-28 05:22:00,48.2,32.8,28.97,ENE,72,0.0,5.4,55,0.00,,---,0.00,VWS V13.00,2013-09-28 13:22:00,
2013-09-28 05:27:00,48.4,32.5,28.97,East,82,0.0,5.4,54,0.00,,---,0.00,VWS V13.00,2013-09-28 13:27:00,
2013-09-28 05:32:00,48.6,32.7,28.97,ESE,111,0.0,5.4,54,0.00,,---,0.00,VWS V13.00,2013-09-28 13:32:00,
2013-09-28 05:37:00,48.6,32.7,28.97,SE,141,5.4,5.4,54,0.00,,---,0.00,VWS V13.00,2013-09-28 13:37:00,
2013-09-28 05:42:00,48.7,32.8,28.97,NE,38,0.0,6.3,54,0.00,,---,0.00,VWS V13.00,2013-09-28 13:42:00,
2013-09-28 05:47:00,48.7,32.8,28.97,ENE,68,0.0,6.3,54,0.00,,---,0.00,VWS V13.00,2013-09-28 13:47:00,
2013-09-28 05:52:00,48.7,32.8,28.97,NNE,18,0.0,6.3,54,0.00,,---,0.00,VWS V13.00,2013-09-28 13:52:00,
2013-09-28 05:57:00,48.6,32.7,28.97,NNE,20,0.0,6.3,54,0.00,,---,0.00,VWS V13.00,2013-09-28 13:57:00,
2013-09-28 06:02:00,48.6,32.7,28.97,SSE,147,0.0,9.2,54,0.00,,---,0.00,VWS V13.00,2013-09-28 14:02:00,
2013-09-28 06:07:00,48.7,32.4,28.97,SE,134,0.0,9.2,53,0.00,,---,0.00,VWS V13.00,2013-09-28 14:07:00,
2013-09-28 06:12:00,48.7,31.9,28.97,NNE,23,0.0,9.2,52,0.00,,---,0.00,VWS V13.00,2013-09-28 14:12:00,
2013-09-28 06:17:00,48.9,31.6,28.97,ENE,61,2.7,9.2,51,0.00,,---,0.00,VWS V13.00,2013-09-28 14:17:00,
2013-09-28 06:22:00,49.1,31.8,28.97,ENE,67,0.0,5.4,51,0.00,,---,0.00,VWS V13.00,2013-09-28 14:22:00,
2013-09-28 06:27:00,49.1,31.8,28.97,ESE,111,7.2,7.2,51,0.00,,---,0.00,VWS V13.00,2013-09-28 14:27:00,
2013-09-28 06:32:00,49.1,31.8,28.97,East,88,5.8,7.6,51,0.00,,---,0.00,VWS V13.00,2013-09-28 14:32:00,
2013-09-28 06:37:00,49.1,31.8,28.97,SSE,150,0.0,7.6,51,0.00,,---,0.00,VWS V13.00,2013-09-28 14:37:00,
2013-09-28 06:42:00,48.9,31.6,28.97,SE,125,5.8,7.2,51,0.00,,---,0.00,VWS V13.00,2013-09-28 14:42:00,
2013-09-28 06:47:00,48.9,31.1,28.94,SE,143,2.7,7.2,50,0.00,,---,0.00,VWS V13.00,2013-09-28 14:47:00,
2013-09-28 06:52:00,49.1,31.3,28.94,East,93,0.0,7.2,50,0.00,,---,0.00,VWS V13.00,2013-09-28 14:52:00,
2013-09-28 06:57:00,49.1,31.3,28.94,NE,46,7.6,12.3,50,0.00,,---,0.00,VWS V13.00,2013-09-28 14:57:00,
2013-09-28 07:02:00,49.1,31.3,28.94,ENE,57,0.0,7.6,50,0.00,,---,0.00,VWS V13.00,2013-09-28 15:02:00,
2013-09-28 07:07:00,49.1,31.3,28.94,East,93,0.0,7.6,50,0.00,,---,0.00,VWS V13.00,2013-09-28 15:07:00,
2013-09-28 07:12:00,48.9,31.1,28.94,NNE,12,0.0,7.6,50,0.00,,---,0.00,VWS V13.00,2013-09-28 15:12:00,
2013-09-28 07:17:00,48.7,31.0,28.94,NNE,15,0.0,7.6,50,0.00,,---,0.00,VWS V13.00,2013-09-28 15:17:00,
2013-09-28 07:22:00,48.9,30.6,28.94,South,180,3.6,3.6,49,0.00,,---,0.00,VWS V13.00,2013-09-28 15:22:00,
2013-09-28 07:27:00,48.9,30.6,28.94,NNW,344,5.4,6.3,49,0.00,,---,0.00,VWS V13.00,2013-09-28 15:27:00,
2013-09-28 07:32:00,49.1,30.8,28.94,SSE,155,9.6,9.6,49,0.00,,---,0.00,VWS V13.00,2013-09-28 15:32:00,
2013-09-28 07:37:00,49.3,30.4,28.94,East,95,8.1,9.6,48,0.00,,---,0.00,VWS V13.00,2013-09-28 15:37:00,
2013-09-28 07:42:00,49.3,30.4,28.94,SE,126,5.8,5.8,48,0.00,,---,0.00,VWS V13.00,2013-09-28 15:42:00,
2013-09-28 07:47:00,49.5,30.6,28.94,East,89,0.0,10.5,48,0.00,,---,0.00,VWS V13.00,2013-09-28 15:47:00,
2013-09-28 07:52:00,49.3,30.4,28.94,NE,40,0.0,10.5,48,0.00,,---,0.00,VWS V13.00,2013-09-28 15:52:00,
2013-09-28 07:57:00,49.1,30.3,28.94,NNE,30,6.3,10.5,48,0.00,,---,0.00,VWS V13.00,2013-09-28 15:57:00,
2013-09-28 08:02:00,48.9,30.1,28.94,East,93,0.0,5.4,48,0.00,,---,0.00,VWS V13.00,2013-09-28 16:02:00,
2013-09-28 08:07:00,49.1,30.3,28.94,ENE,71,12.8,12.8,48,0.00,,---,0.00,VWS V13.00,2013-09-28 16:07:00,
2013-09-28 08:12:00,49.3,30.4,28.94,SE,137,4.9,12.8,48,0.00,,---,0.00,VWS V13.00,2013-09-28 16:12:00,
2013-09-28 08:17:00,49.3,30.4,28.94,NNW,339,0.0,12.8,48,0.00,,---,0.00,VWS V13.00,2013-09-28 16:17:00,
2013-09-28 08:22:00,49.1,30.3,28.94,East,89,5.4,5.4,48,0.00,,---,0.00,VWS V13.00,2013-09-28 16:22:00,
2013-09-28 08:27:00,48.7,29.9,28.94,East,88,13.2,13.2,48,0.00,,---,0.00,VWS V13.00,2013-09-28 16:27:00,
2013-09-28 08:32:00,48.7,29.9,28.94,ENE,57,0.0,13.2,48,0.00,,---,0.00,VWS V13.00,2013-09-28 16:32:00,
2013-09-28 08:37:00,48.7,29.9,28.94,East,96,8.1,13.2,48,0.00,,---,0.00,VWS V13.00,2013-09-28 16:37:00,
2013-09-28 08:42:00,48.6,30.3,28.94,SSE,149,3.1,8.3,49,0.00,,---,0.00,VWS V13.00,2013-09-28 16:42:00,
2013-09-28 08:47:00,48.6,30.3,28.94,SSW,198,0.0,8.3,49,0.00,,---,0.00,VWS V13.00,2013-09-28 16:47:00,
2013-09-28 08:52:00,48.6,30.3,28.94,ESE,112,3.1,8.3,49,0.00,,---,0.00,VWS V13.00,2013-09-28 16:52:00,
2013-09-28 08:57:00,48.6,30.3,28.94,NW,312,5.8,9.2,49,0.00,,---,0.00,VWS V13.00,2013-09-28 16:57:00,
2013-09-28 09:02:00,48.4,30.1,28.94,NNE,31,4.0,5.4,49,0.00,,---,0.00,VWS V13.00,2013-09-28 17:02:00,
2013-09-28 09:07:00,48.4,30.1,28.94,SSE,158,5.8,8.1,49,0.00,,---,0.00,VWS V13.00,2013-09-28 17:07:00,
2013-09-28 09:12:00,48.4,30.1,28.94,SE,138,5.8,8.3,49,0.00,,---,0.00,VWS V13.00,2013-09-28 17:12:00,
2013-09-28 09:17:00,48.4,30.1,28.94,ESE,119,2.7,8.3,49,0.00,,---,0.00,VWS V13.00,2013-09-28 17:17:00,
2013-09-28 09:22:00,48.4,30.1,28.94,East,87,0.0,2.7,49,0.00,,---,0.00,VWS V13.00,2013-09-28 17:22:00,
2013-09-28 09:27:00,48.4,30.1,28.94,SSE,159,3.6,8.7,49,0.00,,---,0.00,VWS V13.00,2013-09-28 17:27:00,
2013-09-28 09:32:00,48.6,30.3,28.94,NNE,17,0.0,8.7,49,0.00,,---,0.00,VWS V13.00,2013-09-28 17:32:00,
2013-09-28 09:37:00,48.6,30.3,28.94,East,94,5.4,8.7,49,0.00,,---,0.00,VWS V13.00,2013-09-28 17:37:00,
2013-09-28 09:42:00,48.6,30.3,28.94,South,172,0.0,4.9,49,0.00,,---,0.00,VWS V13.00,2013-09-28 17:42:00,
2013-09-28 09:47:00,48.4,30.1,28.94,SSE,165,6.3,6.3,49,0.00,,---,0.00,VWS V13.00,2013-09-28 17:47:00,
2013-09-28 09:53:00,48.4,30.1,28.94,ENE,78,0.0,11.0,49,0.00,,---,0.00,VWS V13.00,2013-09-28 17:53:00,
2013-09-28 09:58:00,48.4,30.1,28.94,ESE,115,5.8,11.0,49,0.00,,---,0.00,VWS V13.00,2013-09-28 17:58:00,
2013-09-28 10:03:00,48.4,30.1,28.94,SE,133,6.3,8.1,49,0.00,,---,0.00,VWS V13.00,2013-09-28 18:03:00,
2013-09-28 10:08:00,48.4,30.1,28.94,East,101,2.2,8.1,49,0.00,,---,0.00,VWS V13.00,2013-09-28 18:08:00,
2013-09-28 10:13:00,48.4,30.6,28.94,NNW,335,0.0,8.3,50,0.00,,---,0.00,VWS V13.00,2013-09-28 18:13:00,
2013-09-28 10:18:00,48.2,30.5,28.94,ESE,113,3.1,8.3,50,0.00,,---,0.00,VWS V13.00,2013-09-28 18:18:00,
2013-09-28 10:23:00,48.2,30.5,28.94,South,187,2.2,3.1,50,0.00,,---,0.00,VWS V13.00,2013-09-28 18:23:00,
2013-09-28 10:28:00,48.4,30.6,28.94,ESE,113,0.0,5.8,50,0.00,,---,0.00,VWS V13.00,2013-09-28 18:28:00,
2013-09-28 10:33:00,48.4,30.1,28.94,ESE,122,4.0,5.8,49,0.00,,---,0.00,VWS V13.00,2013-09-28 18:33:00,
2013-09-28 10:38:00,48.4,30.1,28.94,NNW,327,3.6,12.3,49,0.00,,---,0.00,VWS V13.00,2013-09-28 18:38:00,
2013-09-28 10:43:00,48.6,30.3,28.94,SE,124,6.3,8.1,49,0.00,,---,0.00,VWS V13.00,2013-09-28 18:43:00,
2013-09-28 10:48:00,48.6,30.3,28.94,ESE,103,2.2,8.7,49,0.00,,---,0.00,VWS V13.00,2013-09-28 18:48:00,
2013-09-28 10:53:00,48.6,30.3,28.94,NW,322,0.0,8.7,49,0.00,,---,0.00,VWS V13.00,2013-09-28 18:53:00,
2013-09-28 10:58:00,48.6,30.3,28.94,East,98,21.0,21.0,49,0.00,,---,0.00,VWS V13.00,2013-09-28 18:58:00,
2013-09-28 11:03:00,48.6,30.3,28.94,NNW,327,4.0,4.5,49,0.00,,---,0.00,VWS V13.00,2013-09-28 19:03:00,
2013-09-28 11:08:00,48.6,30.8,28.94,South,178,0.0,8.3,50,0.00,,---,0.00,VWS V13.00,2013-09-28 19:08:00,
2013-09-28 11:13:00,48.6,30.8,28.94,WSW,256,0.0,8.3,50,0.00,,---,0.00,VWS V13.00,2013-09-28 19:13:00,
2013-09-28 11:18:00,48.6,30.8,28.94,ESE,110,2.7,8.3,50,0.00,,---,0.00,VWS V13.00,2013-09-28 19:18:00,
2013-09-28 11:23:00,48.6,30.8,28.94,South,178,5.8,7.2,50,0.00,,---,0.00,VWS V13.00,2013-09-28 19:23:00,
2013-09-28 11:28:00,48.6,30.8,28.94,ESE,106,3.6,7.2,50,0.00,,---,0.00,VWS V13.00,2013-09-28 19:28:00,
2013-09-28 11:33:00,48.6,30.8,28.91,SSE,155,4.5,8.1,50,0.00,,---,0.00,VWS V13.00,2013-09-28 19:33:00,
2013-09-28 11:38:00,48.6,30.8,28.91,SW,218,0.0,8.1,50,0.00,,---,0.00,VWS V13.00,2013-09-28 19:38:00,
2013-09-28 11:43:00,48.6,30.8,28.91,NW,312,4.9,4.9,50,0.00,,---,0.00,VWS V13.00,2013-09-28 19:43:00,
2013-09-28 11:48:00,48.4,30.6,28.94,SW,226,4.9,5.8,50,0.00,,---,0.00,VWS V13.00,2013-09-28 19:48:00,
2013-09-28 11:53:00,48.4,30.1,28.94,West,270,8.3,8.3,49,0.00,,---,0.00,VWS V13.00,2013-09-28 19:53:00,
2013-09-28 11:59:00,48.2,30.0,28.94,WNW,295,4.5,8.3,49,0.00,,---,0.00,VWS V13.00,2013-09-28 19:59:00,
2013-09-28 12:04:00,48.0,29.8,28.94,SE,133,5.4,5.4,49,0.00,,---,0.00,VWS V13.00,2013-09-28 20:04:00,
2013-09-28 12:09:00,47.8,29.6,28.94,SE,133,5.4,5.4,49,0.00,,---,0.00,VWS V13.00,2013-09-28 20:09:00,
2013-09-28 12:14:00,47.8,29.6,28.91,SE,131,8.1,11.0,49,0.00,,---,0.00,VWS V13.00,2013-09-28 20:14:00,
2013-09-28 12:19:00,47.7,29.5,28.91,SSE,147,3.1,11.0,49,0.00,,---,0.00,VWS V13.00,2013-09-28 20:19:00,
2013-09-28 12:24:00,47.7,29.5,28.91,SE,127,0.0,3.1,49,0.00,,---,0.00,VWS V13.00,2013-09-28 20:24:00,
2013-09-28 12:29:00,47.7,29.5,28.91,SE,142,0.0,3.1,49,0.00,,---,0.00,VWS V13.00,2013-09-28 20:29:00,
2013-09-28 12:34:00,47.7,29.5,28.91,SSE,154,0.0,8.1,49,0.00,,---,0.00,VWS V13.00,2013-09-28 20:34:00,
2013-09-28 12:39:00,47.7,29.5,28.91,East,82,0.0,8.1,49,0.00,,---,0.00,VWS V13.00,2013-09-28 20:39:00,
2013-09-28 12:44:00,47.8,29.6,28.91,NNE,23,0.0,0.0,49,0.00,,---,0.00,VWS V13.00,2013-09-28 20:44:00,
2013-09-28 12:49:00,48.0,29.8,28.91,SSE,149,5.8,5.8,49,0.00,,---,0.00,VWS V13.00,2013-09-28 20:49:00,
2013-09-28 12:54:00,48.0,29.8,28.91,East,98,0.0,7.6,49,0.00,,---,0.00,VWS V13.00,2013-09-28 20:54:00,
2013-09-28 12:59:00,48.0,29.8,28.91,WSW,258,0.0,7.6,49,0.00,,---,0.00,VWS V13.00,2013-09-28 20:59:00,
2013-09-28 13:04:00,47.8,29.6,28.91,WSW,246,0.0,10.1,49,0.00,,---,0.00,VWS V13.00,2013-09-28 21:04:00,
2013-09-28 13:09:00,47.7,29.5,28.91,East,82,0.0,10.1,49,0.00,,---,0.00,VWS V13.00,2013-09-28 21:09:00,
2013-09-28 13:14:00,47.7,29.5,28.91,NNW,340,0.0,12.3,49,0.00,,---,0.00,VWS V13.00,2013-09-28 21:14:00,
2013-09-28 13:19:00,47.7,29.5,28.91,NNW,343,0.0,12.3,49,0.00,,---,0.00,VWS V13.00,2013-09-28 21:19:00,
2013-09-28 13:24:00,47.7,29.5,28.91,South,170,8.1,10.1,49,0.00,,---,0.00,VWS V13.00,2013-09-28 21:24:00,
2013-09-28 13:29:00,47.5,29.3,28.91,SE,133,0.0,10.1,49,0.00,,---,0.00,VWS V13.00,2013-09-28 21:29:00,
2013-09-28 13:34:00,47.5,29.3,28.91,East,88,2.2,10.1,49,0.00,,---,0.00,VWS V13.00,2013-09-28 21:34:00,
2013-09-28 13:39:00,47.3,29.1,28.91,East,88,2.2,10.1,49,0.00,,---,0.00,VWS V13.00,2013-09-28 21:39:00,
2013-09-28 13:44:00,47.5,29.3,28.91,ESE,106,4.0,4.0,49,0.00,,---,0.00,VWS V13.00,2013-09-28 21:44:00,
2013-09-28 13:49:00,47.5,29.3,28.91,SSE,151,3.6,10.5,49,0.00,,---,0.00,VWS V13.00,2013-09-28 21:49:00,
2013-09-28 13:54:00,47.5,29.3,28.91,SSE,164,3.6,10.5,49,0.00,,---,0.00,VWS V13.00,2013-09-28 21:54:00,
2013-09-28 13:59:00,47.3,29.1,28.91,WSW,242,0.0,10.5,49,0.00,,---,0.00,VWS V13.00,2013-09-28 21:59:00,
2013-09-28 14:04:00,47.3,29.1,28.91,WSW,242,0.0,0.0,49,0.00,,---,0.00,VWS V13.00,2013-09-28 22:04:00,
2013-09-28 14:09:00,47.3,29.1,28.91,SSW,204,4.9,10.1,49,0.00,,---,0.00,VWS V13.00,2013-09-28 22:09:00,
2013-09-28 14:14:00,47.1,29.5,28.91,ESE,117,4.9,10.1,50,0.00,,---,0.00,VWS V13.00,2013-09-28 22:14:00,
2013-09-28 14:19:00,47.1,29.5,28.91,ESE,117,4.9,10.1,50,0.00,,---,0.00,VWS V13.00,2013-09-28 22:19:00,
2013-09-28 14:24:00,47.1,29.5,28.91,SE,125,10.1,10.1,50,0.00,,---,0.00,VWS V13.00,2013-09-28 22:24:00,
2013-09-28 14:29:00,47.1,29.5,28.91,SE,125,10.1,10.1,50,0.00,,---,0.00,VWS V13.00,2013-09-28 22:29:00,
2013-09-28 14:34:00,47.1,29.5,28.91,SE,140,4.9,10.1,50,0.00,,---,0.00,VWS V13.00,2013-09-28 22:34:00,
2013-09-28 14:39:00,47.3,29.6,28.91,NNE,28,0.0,10.1,50,0.00,,---,0.00,VWS V13.00,2013-09-28 22:39:00,
2013-09-28 14:44:00,47.3,29.6,28.91,WSW,241,0.0,0.0,50,0.00,,---,0.00,VWS V13.00,2013-09-28 22:44:00,
2013-09-28 14:49:00,47.5,29.8,28.91,SSE,157,0.0,0.0,50,0.00,,---,0.00,VWS V13.00,2013-09-28 22:49:00,
2013-09-28 14:54:00,47.5,29.8,28.91,WSW,247,0.0,3.1,50,0.00,,---,0.00,VWS V13.00,2013-09-28 22:54:00,
2013-09-28 14:59:00,47.7,30.0,28.91,SW,222,0.0,3.6,50,0.00,,---,0.00,VWS V13.00,2013-09-28 22:59:00,
2013-09-28 15:04:00,47.7,29.5,28.91,SSW,202,0.0,4.9,49,0.00,,---,0.00,VWS V13.00,2013-09-28 23:04:00,
2013-09-28 15:10:00,47.5,29.3,28.91,SE,136,8.7,8.7,49,0.00,,---,0.00,VWS V13.00,2013-09-28 23:10:00,
2013-09-28 15:15:00,47.3,29.1,28.91,ESE,108,8.1,8.7,49,0.00,,---,0.00,VWS V13.00,2013-09-28 23:15:00,
2013-09-28 15:20:00,47.3,29.1,28.91,South,180,4.9,8.7,49,0.00,,---,0.00,VWS V13.00,2013-09-28 23:20:00,
2013-09-28 15:25:00,47.1,29.0,28.91,SSE,157,6.3,6.3,49,0.00,,---,0.00,VWS V13.00,2013-09-28 23:25:00,
2013-09-28 15:30:00,46.9,28.8,28.91,ENE,66,0.0,6.3,49,0.00,,---,0.00,VWS V13.00,2013-09-28 23:30:00,
2013-09-28 15:35:00,46.9,28.8,28.91,SE,131,0.0,6.3,49,0.00,,---,0.00,VWS V13.00,2013-09-28 23:35:00,
2013-09-28 15:40:00,46.9,29.3,28.91,North,357,0.0,0.0,50,0.00,,---,0.00,VWS V13.00,2013-09-28 23:40:00,
2013-09-28 15:45:00,46.9,29.8,28.91,East,99,4.0,8.1,51,0.00,,---,0.00,VWS V13.00,2013-09-28 23:45:00,
2013-09-28 15:50:00,46.9,29.3,28.91,NE,52,0.0,8.1,50,0.00,,---,0.00,VWS V13.00,2013-09-28 23:50:00,
2013-09-28 15:55:00,46.8,29.6,28.91,SSE,153,5.4,8.1,51,0.00,,---,0.00,VWS V13.00,2013-09-28 23:55:00,
2013-09-28 16:00:00,46.4,29.3,28.91,SE,124,0.0,8.1,51,0.00,,---,0.00,VWS V13.00,2013-09-29 00:00:00,
2013-09-28 16:05:00,46.0,28.5,28.91,SSE,166,2.7,12.3,50,0.00,,---,0.00,VWS V13.00,2013-09-29 00:05:00,
2013-09-28 16:10:00,46.0,28.9,28.91,East,93,0.0,12.3,51,0.00,,---,0.00,VWS V13.00,2013-09-29 00:10:00,
2013-09-28 16:15:00,45.9,28.8,28.91,SE,130,0.0,12.3,51,0.00,,---,0.00,VWS V13.00,2013-09-29 00:15:00,
2013-09-28 16:20:00,46.0,28.9,28.91,South,177,0.0,12.3,51,0.00,,---,0.00,VWS V13.00,2013-09-29 00:20:00,
2013-09-28 16:25:00,45.9,28.8,28.91,ESE,119,0.0,8.7,51,0.00,,---,0.00,VWS V13.00,2013-09-29 00:25:00,
2013-09-28 16:30:00,45.9,28.8,28.91,SW,226,4.9,8.7,51,0.00,,---,0.00,VWS V13.00,2013-09-29 00:30:00,
2013-09-28 16:35:00,45.9,28.8,28.91,East,96,3.6,8.7,51,0.00,,---,0.00,VWS V13.00,2013-09-29 00:35:00,
2013-09-28 16:40:00,46.0,28.9,28.91,ESE,113,4.0,4.0,51,0.00,,---,0.00,VWS V13.00,2013-09-29 00:40:00,
2013-09-28 16:45:00,46.0,28.9,28.91,SSE,165,0.0,5.4,51,0.00,,---,0.00,VWS V13.00,2013-09-29 00:45:00,
2013-09-28 16:51:00,46.0,29.4,28.91,South,184,0.0,5.4,52,0.00,,---,0.00,VWS V13.00,2013-09-29 00:51:00,
2013-09-28 16:56:00,45.9,29.2,28.91,SW,235,0.0,8.3,52,0.00,,---,0.00,VWS V13.00,2013-09-29 00:56:00,
2013-09-28 17:01:00,45.7,29.1,28.91,SE,124,5.8,5.8,52,0.00,,---,0.00,VWS V13.00,2013-09-29 01:01:00,
2013-09-28 17:06:00,45.7,29.5,28.91,ESE,115,7.2,10.1,53,0.00,,---,0.00,VWS V13.00,2013-09-29 01:06:00,
2013-09-28 17:11:00,45.5,29.4,28.91,North,357,2.7,10.1,53,0.00,,---,0.00,VWS V13.00,2013-09-29 01:11:00,
2013-09-28 17:16:00,45.5,29.4,28.91,SE,136,6.3,10.1,53,0.00,,---,0.00,VWS V13.00,2013-09-29 01:16:00,
2013-09-28 17:21:00,45.5,29.4,28.91,ESE,112,3.1,3.1,53,0.00,,---,0.00,VWS V13.00,2013-09-29 01:21:00,
2013-09-28 17:26:00,45.5,29.4,28.91,SSE,153,9.2,9.2,53,0.00,,---,0.00,VWS V13.00,2013-09-29 01:26:00,
2013-09-28 17:31:00,45.3,28.8,28.91,South,169,9.6,9.6,52,0.00,,---,0.00,VWS V13.00,2013-09-29 01:31:00,
2013-09-28 17:36:00,45.3,28.8,28.91,ESE,113,0.0,9.6,52,0.00,,---,0.00,VWS V13.00,2013-09-29 01:36:00,
2013-09-28 17:41:00,45.5,29.4,28.91,WNW,303,0.0,0.0,53,0.00,,---,0.00,VWS V13.00,2013-09-29 01:41:00,
2013-09-28 17:46:00,45.3,29.2,28.91,ENE,62,2.7,8.1,53,0.00,,---,0.00,VWS V13.00,2013-09-29 01:46:00,
2013-09-28 17:51:00,45.3,29.2,28.91,NNE,21,0.0,8.1,53,0.00,,---,0.00,VWS V13.00,2013-09-29 01:51:00,
2013-09-28 17:56:00,45.1,28.6,28.91,SSE,160,0.0,12.3,52,0.00,,---,0.00,VWS V13.00,2013-09-29 01:56:00,
2013-09-28 18:01:00,45.0,28.4,28.91,ESE,111,0.0,0.0,52,0.00,,---,0.00,VWS V13.00,2013-09-29 02:01:00,
2013-09-28 18:06:00,44.8,28.2,28.91,SE,145,5.8,5.8,52,0.00,,---,0.00,VWS V13.00,2013-09-29 02:06:00,
2013-09-28 18:11:00,44.6,28.1,28.91,ENE,67,7.6,13.2,52,0.00,,---,0.00,VWS V13.00,2013-09-29 02:11:00,
2013-09-28 18:16:00,44.6,28.1,28.91,NNE,17,7.6,13.2,52,0.00,,---,0.00,VWS V13.00,2013-09-29 02:16:00,
2013-09-28 18:21:00,44.4,27.9,28.91,ESE,114,0.0,0.0,52,0.00,,---,0.00,VWS V13.00,2013-09-29 02:21:00,
2013-09-28 18:26:00,44.4,27.9,28.91,NNE,12,6.3,6.3,52,0.00,,---,0.00,VWS V13.00,2013-09-29 02:26:00,
2013-09-28 18:31:00,44.2,27.7,28.94,SSE,160,5.4,6.3,52,0.00,,---,0.00,VWS V13.00,2013-09-29 02:31:00,
2013-09-28 18:36:00,44.2,27.3,28.94,SSE,165,0.0,7.6,51,0.00,,---,0.00,VWS V13.00,2013-09-29 02:36:00,
2013-09-28 18:41:00,44.2,27.7,28.94,ESE,117,8.7,8.7,52,0.00,,---,0.00,VWS V13.00,2013-09-29 02:41:00,
2013-09-28 18:46:00,44.2,27.7,28.91,SE,141,8.1,12.8,52,0.00,,---,0.00,VWS V13.00,2013-09-29 02:46:00,
2013-09-28 18:51:00,44.2,27.3,28.91,ESE,119,3.6,12.8,51,0.00,,---,0.00,VWS V13.00,2013-09-29 02:51:00,
2013-09-28 18:56:00,44.2,27.3,28.91,North,5,0.0,13.2,51,0.00,,---,0.00,VWS V13.00,2013-09-29 02:56:00,
2013-09-28 19:01:00,44.1,27.1,28.94,SW,236,4.9,4.9,51,0.00,,---,0.00,VWS V13.00,2013-09-29 03:01:00,
2013-09-28 19:06:00,44.1,27.1,28.94,SSW,199,4.0,8.7,51,0.00,,---,0.00,VWS V13.00,2013-09-29 03:06:00,
2013-09-28 19:11:00,43.7,27.2,28.94,SSE,153,8.3,8.7,52,0.00,,---,0.00,VWS V13.00,2013-09-29 03:11:00,
2013-09-28 19:16:00,43.5,26.6,28.94,SSE,164,4.5,9.6,51,0.00,,---,0.00,VWS V13.00,2013-09-29 03:16:00,
2013-09-28 19:21:00,43.5,26.6,28.94,NE,36,4.0,5.4,51,0.00,,---,0.00,VWS V13.00,2013-09-29 03:21:00,
2013-09-28 19:26:00,43.5,26.6,28.94,ESE,118,2.2,9.2,51,0.00,,---,0.00,VWS V13.00,2013-09-29 03:26:00,
2013-09-28 19:31:00,43.5,26.6,28.94,NNE,13,0.0,9.2,51,0.00,,---,0.00,VWS V13.00,2013-09-29 03:31:00,
2013-09-28 19:36:00,43.5,26.1,28.94,South,178,2.7,9.2,50,0.00,,---,0.00,VWS V13.00,2013-09-29 03:36:00,
2013-09-28 19:41:00,43.5,25.6,28.94,SE,136,5.8,10.5,49,0.00,,---,0.00,VWS V13.00,2013-09-29 03:41:00,
2013-09-28 19:46:00,43.5,25.6,28.94,SSE,159,14.5,14.5,49,0.00,,---,0.00,VWS V13.00,2013-09-29 03:46:00,
2013-09-28 19:51:00,43.5,25.6,28.94,ENE,58,8.1,14.5,49,0.00,,---,0.00,VWS V13.00,2013-09-29 03:51:00,
2013-09-28 19:56:00,43.5,25.6,28.94,NE,34,0.0,14.5,49,0.00,,---,0.00,VWS V13.00,2013-09-29 03:56:00,
2013-09-28 20:01:00,43.5,25.6,28.94,SE,124,7.6,7.6,49,0.00,,---,0.00,VWS V13.00,2013-09-29 04:01:00,
2013-09-28 20:06:00,43.5,25.6,28.94,East,92,8.1,8.1,49,0.00,,---,0.00,VWS V13.00,2013-09-29 04:06:00,
2013-09-28 20:11:00,43.3,25.5,28.94,East,93,6.3,10.1,49,0.00,,---,0.00,VWS V13.00,2013-09-29 04:11:00,
2013-09-28 20:16:00,43.3,25.5,28.94,ESE,121,4.0,11.9,49,0.00,,---,0.00,VWS V13.00,2013-09-29 04:16:00,
2013-09-28 20:21:00,43.3,25.5,28.94,SE,140,9.2,9.2,49,0.00,,---,0.00,VWS V13.00,2013-09-29 04:21:00,
2013-09-28 20:26:00,43.3,25.5,28.94,SE,124,0.0,9.2,49,0.00,,---,0.00,VWS V13.00,2013-09-29 04:26:00,
2013-09-28 20:31:00,43.2,24.8,28.94,WSW,248,4.5,9.2,48,0.00,,---,0.00,VWS V13.00,2013-09-29 04:31:00,
2013-09-28 20:36:00,43.3,25.0,28.94,South,190,7.6,12.8,48,0.00,,---,0.00,VWS V13.00,2013-09-29 04:36:00,
2013-09-28 20:41:00,43.3,25.0,28.94,SW,227,4.5,8.7,48,0.00,,---,0.00,VWS V13.00,2013-09-29 04:41:00,
2013-09-28 20:46:00,43.3,25.0,28.94,ESE,117,5.4,17.4,48,0.00,,---,0.00,VWS V13.00,2013-09-29 04:46:00,
2013-09-28 20:51:00,43.3,25.0,28.94,ESE,122,6.3,17.4,48,0.00,,---,0.00,VWS V13.00,2013-09-29 04:51:00,
2013-09-28 20:56:00,43.5,25.1,28.94,NE,54,11.0,17.4,48,0.00,,---,0.00,VWS V13.00,2013-09-29 04:56:00,
2013-09-28 21:01:00,43.3,25.0,28.94,WSW,251,4.5,9.2,48,0.00,,---,0.00,VWS V13.00,2013-09-29 05:01:00,
2013-09-28 21:06:00,43.3,24.5,28.94,SW,231,3.6,12.3,47,0.00,,---,0.00,VWS V13.00,2013-09-29 05:06:00,
2013-09-28 21:11:00,43.3,24.5,28.94,SSE,158,16.8,16.8,47,0.00,,---,0.00,VWS V13.00,2013-09-29 05:11:00,
2013-09-28 21:16:00,43.3,24.5,28.94,East,99,12.8,16.8,47,0.00,,---,0.00,VWS V13.00,2013-09-29 05:16:00,
2013-09-28 21:21:00,43.2,24.3,28.94,SE,141,12.8,12.8,47,0.00,,---,0.00,VWS V13.00,2013-09-29 05:21:00,
2013-09-28 21:26:00,43.2,24.3,28.94,East,94,4.9,15.4,47,0.00,,---,0.00,VWS V13.00,2013-09-29 05:26:00,
2013-09-28 21:31:00,43.2,24.3,28.94,South,182,11.0,24.2,47,0.00,,---,0.00,VWS V13.00,2013-09-29 05:31:00,
2013-09-28 21:36:00,43.2,24.3,28.94,ENE,67,7.6,24.2,47,0.00,,---,0.00,VWS V13.00,2013-09-29 05:36:00,
2013-09-28 21:41:00,43.0,24.1,28.94,SSE,149,12.8,12.8,47,0.00,,---,0.00,VWS V13.00,2013-09-29 05:41:00,
2013-09-28 21:46:00,43.0,24.1,28.97,South,177,6.3,12.8,47,0.00,,---,0.00,VWS V13.00,2013-09-29 05:46:00,
2013-09-28 21:51:00,43.0,23.6,28.97,South,188,11.9,25.7,46,0.00,,---,0.00,VWS V13.00,2013-09-29 05:51:00,
2013-09-28 21:56:00,43.0,23.6,28.97,East,81,0.0,25.7,46,0.00,,---,0.00,VWS V13.00,2013-09-29 05:56:00,
2013-09-28 22:01:00,43.2,23.8,28.97,NNE,19,10.5,17.0,46,0.00,,---,0.00,VWS V13.00,2013-09-29 06:01:00,
2013-09-28 22:06:00,43.2,23.8,28.97,ESE,113,7.6,17.0,46,0.00,,---,0.00,VWS V13.00,2013-09-29 06:06:00,
2013-09-28 22:11:00,43.0,23.6,28.97,SE,134,12.8,17.0,46,0.00,,---,0.00,VWS V13.00,2013-09-29 06:11:00,
2013-09-28 22:16:00,43.2,23.3,28.97,SE,140,5.4,17.0,45,0.00,,---,0.00,VWS V13.00,2013-09-29 06:16:00,
2013-09-28 22:21:00,43.2,23.3,28.97,SE,131,7.6,7.6,45,0.00,,---,0.00,VWS V13.00,2013-09-29 06:21:00,
2013-09-28 22:26:00,43.0,23.1,28.97,East,90,0.0,12.8,45,0.00,,---,0.00,VWS V13.00,2013-09-29 06:26:00,
2013-09-28 22:31:00,43.0,23.1,28.97,East,101,8.1,12.8,45,0.00,,---,0.00,VWS V13.00,2013-09-29 06:31:00,
2013-09-28 22:36:00,43.0,23.1,28.97,South,177,8.7,12.8,45,0.00,,---,0.00,VWS V13.00,2013-09-29 06:36:00,
2013-09-28 22:41:00,43.0,23.1,28.97,SSE,155,8.1,8.3,45,0.00,,---,0.00,VWS V13.00,2013-09-29 06:41:00,
2013-09-28 22:46:00,43.0,23.1,28.97,ESE,116,5.4,10.5,45,0.00,,---,0.00,VWS V13.00,2013-09-29 06:46:00,
2013-09-28 22:51:00,43.0,23.1,28.97,ESE,106,5.4,13.2,45,0.00,,---,0.00,VWS V13.00,2013-09-29 06:51:00,
2013-09-28 22:56:00,43.0,23.1,28.97,East,88,5.4,13.2,45,0.00,,---,0.00,VWS V13.00,2013-09-29 06:56:00,
2013-09-28 23:01:00,43.0,23.1,28.97,ESE,113,5.8,5.8,45,0.00,,---,0.00,VWS V13.00,2013-09-29 07:01:00,
2013-09-28 23:06:00,43.0,23.1,28.97,SSW,205,2.7,10.1,45,0.00,,---,0.00,VWS V13.00,2013-09-29 07:06:00,
2013-09-28 23:11:00,43.0,22.6,28.97,SE,139,3.6,10.1,44,0.00,,---,0.00,VWS V13.00,2013-09-29 07:11:00,
2013-09-28 23:16:00,43.0,22.6,28.97,South,182,6.7,10.5,44,0.00,,---,0.00,VWS V13.00,2013-09-29 07:16:00,
2013-09-28 23:21:00,43.0,22.6,28.97,ESE,111,11.0,11.0,44,0.00,,---,0.00,VWS V13.00,2013-09-29 07:21:00,
2013-09-28 23:26:00,42.8,22.4,28.97,ENE,73,11.0,15.4,44,0.00,,---,0.00,VWS V13.00,2013-09-29 07:26:00,
2013-09-28 23:31:00,42.8,23.0,28.97,ENE,70,3.6,15.4,45,0.00,,---,0.00,VWS V13.00,2013-09-29 07:31:00,
2013-09-28 23:36:00,42.8,23.0,28.97,SE,146,5.4,15.4,45,0.00,,---,0.00,VWS V13.00,2013-09-29 07:36:00,
2013-09-28 23:41:00,42.8,23.0,28.97,SSE,167,11.0,11.0,45,0.00,,---,0.00,VWS V13.00,2013-09-29 07:41:00,
2013-09-28 23:46:00,42.8,22.4,29.00,ENE,71,3.1,23.7,44,0.00,,---,0.00,VWS V13.00,2013-09-29 07:46:00,
2013-09-28 23:51:00,42.8,22.4,29.00,SW,234,17.0,23.7,44,0.00,,---,0.00,VWS V13.00,2013-09-29 07:51:00,
2013-09-28 23:56:00,42.6,22.8,29.00,NE,41,8.1,23.7,45,0.00,,---,0.00,VWS V13.00,2013-09-29 07:56:00,